This demonstration page uses our WeatherBlox Daily Observations layout. Learn more.

Left ArrowRight Arrow

Hourly Observations for July 2, 2018

Temp ( °F °C ) Dew Point ( °F °C ) Humidity (%) Winds ( mph kmh ) Pressure ( in mb ) Visibility ( mi km ) Precip ( " mm )
12:51 am 00:51 Clear 84 28.9 17 -8.3 8 8 WSW 8 13 29.78 1009 10 16.0934 N/A
1:51 am 01:51 Clear 79 26.1 16 -8.9 9 9 NW 12 19 29.78 1009 10 16.0934 N/A
2:51 am 02:51 Clear 78 25.6 16 -8.9 9 9 WNW 12 19 29.78 1008 10 16.0934 N/A
3:51 am 03:51 Clear 77 25 16 -8.9 10 10 WNW 8 13 29.8 1009 10 16.0934 N/A
4:51 am 04:51 Clear 73 22.8 16 -8.9 11 11 WNW 5 7 29.81 1009 10 16.0934 N/A
5:51 am 05:51 Sunny 72 22.2 16 -8.9 12 12 N N/A 29.84 1010 10 16.0934 N/A
6:51 am 06:51 Sunny 75 23.9 23 -5 14 14 SSE 3 6 29.85 1011 10 16.0934 N/A
7:51 am 07:51 Sunny 81 27.2 21 -6.1 11 11 VRB 5 7 29.85 1011 10 16.0934 N/A
8:51 am 08:51 Sunny 86 30 24 -4.4 10 10 WSW 5 7 29.83 1010 10 16.0934 N/A
9:51 am 09:51 Sunny 95 35 16 -8.9 5 5 WNW 15 24 29.81 1009 10 16.0934 N/A
10:51 am 10:51 Sunny 98 36.7 14 -10 4 4 WNW 17 28 29.8 1009 10 16.0934 N/A
11:51 am 11:51 Sunny 100 37.8 16 -8.9 5 5 WNW 16 26 29.78 1009 10 16.0934 N/A
12:51 pm 12:51 Sunny 102 38.9 17 -8.3 5 5 WNW 21 33 29.75 1007 10 16.0934 N/A
1:51 pm 13:51 Sunny 103 39.4 17 -8.3 4 4 NNW 12 19 29.72 1007 10 16.0934 N/A
2:51 pm 14:51 Sunny 103 39.4 18 -7.8 5 5 NW 15 24 29.7 1006 10 16.0934 N/A
3:51 pm 15:51 Sunny 103 39.4 19 -7.2 5 5 NW 16 26 29.68 1005 10 16.0934 N/A
4:51 pm 16:51 Sunny 101 38.3 20 -6.7 5 5 NW 15 24 29.67 1005 10 16.0934 N/A
5:51 pm 17:51 Sunny 100 37.8 22 -5.6 6 6 NW 17 28 29.68 1005 10 16.0934 N/A
6:51 pm 18:51 Sunny 97 36.1 25 -3.9 7 7 WNW 20 31 29.69 1005 10 16.0934 N/A
7:51 pm 19:51 Clear 93 33.9 26 -3.3 9 9 WNW 16 26 29.7 1006 10 16.0934 N/A
8:51 pm 20:51 Clear 90 32.2 25 -3.9 9 9 NW 13 20 29.72 1006 10 16.0934 N/A
9:51 pm 21:51 Clear 89 31.7 26 -3.3 10 10 NW 13 20 29.72 1007 10 16.0934 N/A
10:51 pm 22:51 Clear 82 27.8 27 -2.8 13 13 WNW 10 17 29.74 1007 10 16.0934 N/A
11:51 pm 23:51 Clear 81 27.2 27 -2.8 14 14 WNW 10 17 29.73 1007 10 16.0934 N/A

Powered by AerisWeather